Location: Le Gr�zie
(43.6000°N, 13.5000°E)
Time: 11:33:03
(UTC+00:00)

DMSP B5D2-2 - Pass Details

Date: 09 April 2020
Orbit: 791 x 805 km, 98.3° (Epoch: 05 June)

Event Time Altitude Azimuth Distance (km) Brightness Sun altitude
Rises 18:59:24 0° 17° (NNE) 3,304 7.4 -14.0°
Reaches altitude 10° 19:01:47 10° 21° (NNE) 2,371 6.6 -14.3°
Maximum altitude 19:06:57 58° 101° (E) 928 4.1 -15.2°
Drops below altitude 10° 19:12:05 10° 180° (S) 2,363 6.3 -16.0°
Sets 19:14:27 0° 184° (S) 3,291 7.0 -16.4°
